Racine, WI

12:08 PM CST on February 14, 2016 (GMT -0600)
Batten

Weather History for KRAC - February, 2013

Change the Weather History Date:

Thursday, February 28, 2013

  Actual Average (KMKE) Record (KMKE)
Temperature  
Mean Temperature 30 °F 30 °F  
Max Temperature 33 °F 37 °F 54 °F (1895)
Min Temperature 26 °F 23 °F -12 °F (1884)
Degree Days  
Heating Degree Days 36 35  
Month to date heating degree days 1094  
Since 1 July heating degree days 4980  
Cooling Degree Days 0 0  
Month to date cooling degree days 0  
Year to date cooling degree days 0  
Moisture  
Dew Point 26 °F    
Average Humidity 81    
Maximum Humidity 96    
Minimum Humidity 69    
Precipitation  
Precipitation 0.00 in 0.06 in 1.18 in (1987)
Month to date precipitation 1.65  
Year to date precipitation 3.41  
Snow  
Snow 0.00 in 0.30 in 7.00 in (1890)
Month to date snowfall 9.8  
Since 1 July snowfall 37.8  
Snow Depth -    
Sea Level Pressure  
Sea Level Pressure 29.92 in    
Wind  
Wind Speed 16 mph (North)    
Max Wind Speed 24 mph    
Max Gust Speed 32 mph    
Visibility 8 miles    
Events Snow    
T = Trace of Precipitation, MM = Missing Value Source: NWS Daily Summary

Daily Weather History Graph

Daily Weather History Graph

Search for Another Location

Airport or City:

Trip Planner

Search our weather history database for the weather conditions in past years. The results will help you decide how hot, cold, wet, or windy it might be!

Date:

Astronomy

Feb. 28, 2013 Rise Set
Actual Time 6:28 AM CST 5:39 PM CST
Civil Twilight 5:59 AM CST 6:08 PM CST
Nautical Twilight 5:27 AM CST 6:41 PM CST
Astronomical Twilight 4:54 AM CST 7:13 PM CST
Moon 9:12 PM CST (2/28) 7:32 AM CST (2/28)
Length of Visible Light 12h 08m
Length of Day
11h 11m
Waning Gibbous, 90% of the Moon is Illuminated
Feb 28
Waning Gibbous
Mar 4
Last Quarter
Mar 11
New
Mar 19
First Quarter
Mar 27
Full

Hourly Weather History & Observations

Time (CST) Temp. Windchill Dew Point Humidity Pressure Visibility Wind Dir Wind Speed Gust Speed Precip Events Conditions
12:18 AM 32.0 °F 21.2 °F 30.2 °F 93% 29.72 in 2.0 mi North 16.1 mph 23.0 mph 0.00 in Snow Light Snow
1:04 AM 33.8 °F 24.3 °F 30.2 °F 87% 29.72 in 3.0 mi North 13.8 mph 24.2 mph 0.00 in Snow Light Snow
1:39 AM 33.8 °F 23.9 °F 30.2 °F 87% 29.74 in 3.0 mi NNW 15.0 mph - 0.00 in Snow Light Snow
1:46 AM 33.8 °F 23.9 °F 30.2 °F 87% 29.74 in 2.0 mi NNW 15.0 mph 23.0 mph 0.00 in Snow Light Snow
1:48 AM 33.8 °F 23.5 °F 30.2 °F 87% 29.74 in 1.8 mi NNW 16.1 mph 23.0 mph 0.00 in Snow Light Snow
1:53 AM 32.0 °F 22.1 °F 30.9 °F 96% 29.76 in 1.8 mi NNW 13.8 mph 23.0 mph 0.00 in Snow Light Snow
1:56 AM 32.0 °F 23.0 °F 30.2 °F 93% 29.74 in 2.0 mi North 11.5 mph 20.7 mph 0.00 in Snow Light Snow
2:05 AM 33.8 °F 23.9 °F 30.2 °F 87% 29.74 in 4.0 mi NNW 15.0 mph - 0.00 in Snow Light Snow
2:53 AM 33.1 °F 23.0 °F 30.0 °F 89% 29.78 in 10.0 mi North 15.0 mph 26.5 mph 0.00 in   Overcast
3:53 AM 33.1 °F 22.6 °F 28.9 °F 85% 29.79 in 10.0 mi North 16.1 mph 23.0 mph N/A   Overcast
4:53 AM 33.1 °F 22.6 °F 28.9 °F 85% 29.82 in 10.0 mi North 16.1 mph 26.5 mph N/A   Overcast
5:50 AM 33.8 °F 23.5 °F 28.4 °F 81% 29.81 in 10.0 mi North 16.1 mph 25.3 mph N/A   Overcast
5:53 AM 33.1 °F 22.2 °F 28.9 °F 85% 29.84 in 10.0 mi North 17.3 mph 25.3 mph N/A   Overcast
6:25 AM 33.8 °F 23.5 °F 28.4 °F 81% 29.83 in 10.0 mi North 16.1 mph 24.2 mph N/A   Overcast
6:53 AM 32.0 °F 20.1 °F 28.9 °F 88% 29.87 in 10.0 mi North 19.6 mph 31.1 mph N/A   Overcast
7:27 AM 32.0 °F 20.8 °F 30.2 °F 93% 29.86 in 2.5 mi North 17.3 mph - 0.00 in Snow Light Snow
8:33 AM 32.0 °F 19.5 °F 28.4 °F 87% 29.88 in 10.0 mi North 21.9 mph 31.1 mph 0.00 in   Overcast
8:53 AM 32.0 °F 19.5 °F 28.9 °F 88% 29.91 in 10.0 mi North 21.9 mph 31.1 mph 0.00 in   Overcast
9:53 AM 33.1 °F 23.0 °F 28.0 °F 82% 29.93 in 10.0 mi North 15.0 mph 26.5 mph N/A   Overcast
10:53 AM 33.1 °F 22.2 °F 28.0 °F 82% 29.95 in 10.0 mi North 17.3 mph 28.8 mph N/A   Overcast
11:53 AM 33.1 °F 23.0 °F 26.1 °F 75% 29.97 in 10.0 mi North 15.0 mph 26.5 mph N/A   Overcast
12:53 PM 32.0 °F 19.8 °F 25.0 °F 75% 29.98 in 10.0 mi North 20.7 mph 26.5 mph N/A   Overcast
1:53 PM 32.0 °F 21.2 °F 25.0 °F 75% 29.99 in 10.0 mi North 16.1 mph 23.0 mph N/A   Overcast
2:37 PM 32.0 °F 18.9 °F 24.8 °F 75% 29.98 in 10.0 mi North 24.2 mph 32.2 mph N/A   Overcast
2:53 PM 30.9 °F 19.4 °F 25.0 °F 79% 30.01 in 10.0 mi North 17.3 mph 27.6 mph N/A   Overcast
3:53 PM 30.0 °F 18.3 °F 24.1 °F 79% 30.04 in 10.0 mi North 17.3 mph 26.5 mph N/A   Overcast
4:39 PM 30.2 °F 18.5 °F 21.2 °F 69% 30.03 in 10.0 mi North 17.3 mph - N/A   Overcast
4:53 PM 30.0 °F 18.7 °F 21.9 °F 72% 30.05 in 10.0 mi North 16.1 mph 21.9 mph N/A   Overcast
5:20 PM 30.2 °F 19.3 °F 21.2 °F 69% 30.04 in 10.0 mi North 15.0 mph - N/A   Overcast
5:53 PM 30.0 °F 19.1 °F 21.9 °F 72% 30.07 in 10.0 mi North 15.0 mph - N/A   Overcast
6:53 PM 28.0 °F 15.3 °F 23.0 °F 81% 30.10 in 4.0 mi North 18.4 mph - 0.00 in Snow Light Snow
7:14 PM 28.4 °F 16.6 °F 21.2 °F 74% 30.07 in 10.0 mi North 16.1 mph 25.3 mph 0.00 in   Overcast
7:35 PM 28.4 °F 15.1 °F 19.4 °F 69% 30.07 in 10.0 mi North 20.7 mph 28.8 mph 0.00 in   Overcast
7:53 PM 28.0 °F 16.5 °F 19.9 °F 72% 30.10 in 10.0 mi NNW 15.0 mph - 0.00 in   Overcast
9:53 PM 27.0 °F 15.2 °F 19.9 °F 75% 30.11 in 9.0 mi NNW 15.0 mph - 0.00 in   Overcast
10:53 PM 26.1 °F 15.0 °F 19.9 °F 78% 30.10 in 10.0 mi North 12.7 mph 21.9 mph N/A   Overcast
11:53 PM 27.0 °F 14.7 °F 19.9 °F 75% 30.09 in 10.0 mi North 16.1 mph 20.7 mph N/A   Overcast